Wind_Speed
5 4 3 2 2 2 2 2 3 4 4 4 4 4 4 3 3 3 3 4 5 3 1 1 2 3 3 2 3 3 4 7 8 9 8 6 4 4 5 7 8 7 11
7 5 4 4 4 3 3 3 3 3 3 3 4 4 3 3 2 1 1 2 3 3 2 2 3 4 5 4 5 6 7 9 9 8 7 4 4 5 3 2 4 7 8
8 7 2 4 4 4 4 4 4 4 3 3 3 3 3 2 2 1 1 0 2 3 2 2 3 6 6 7 8 9 9 9 8 7 6 2 6 6 5 4 4 5 8
8 4 4 4 3 4 4 5 5 4 4 3 3 2 2 2 3 2 2 2 2 2 3 3 4 6 7 7 8 10 10 9 7 6 2 3 5 4 5 6 6 5 8
6 5 4 1 1 2 3 3 3 3 3 3 2 2 3 4 4 4 4 5 4 3 4 3 5 7 8 8 9 10 10 8 7 5 3 4 3 6 4 5 5 5 6
4 5 4 1 1 1 1 2 3 3 3 3 3 4 4 4 5 6 7 7 6 5 5 5 6 8 8 8 9 10 9 9 8 7 5 7 4 10 6 6 7 6 5
7 7 6 6 4 1 1 2 2 2 3 4 4 5 5 6 6 7 7 9 9 8 7 7 7 9 8 9 10 10 10 10 9 7 6 6 7 9 8 7 9 8 8
5 6 6 7 7 8 7 5 5 5 6 6 6 7 6 7 8 8 9 9 11 11 10 10 9 10 10 10 11 11 11 10 10 9 9 8 13 11 10 10 9 10 11
6 6 6 6 6 5 4 6 7 7 7 7 8 8 8 8 9 10 11 11 12 13 13 12 12 12 12 11 12 12 12 11 11 12 11 10 14 12 13 12 14 14 13
8 6 6 6 5 5 5 6 7 8 8 9 11 12 12 12 12 12 12 14 15 16 15 14 14 14 15 13 14 14 14 14 15 13 13 13 18 13 16 16 19 19 19
10 8 7 5 3 5 7 8 9 11 11 11 10 11 11 12 12 13 14 16 17 18 18 17 15 16 17 18 17 17 17 15 14 14 14 18 19 16 17 19 21 22 24
8 6 5 3 4 6 6 7 8 10 12 13 13 13 13 13 14 13 13 15 16 19 20 20 19 18 19 17 16 19 20 15 16 16 16 23 20 18 18 18 20 25 28
8 6 3 2 4 7 9 10 11 11 11 12 13 13 13 12 14 16 16 15 13 14 15 17 18 19 18 17 17 19 17 17 17 17 18 23 19 22 22 20 19 23 30
9 7 4 1 3 6 10 13 15 16 16 14 15 15 14 13 14 15 16 18 20 20 20 14 17 19 21 21 22 21 22 23 22 19 19 24 20 23 24 23 21 21 27
10 8 4 1 1 6 10 13 15 15 16 17 17 17 16 17 17 17 18 18 20 22 22 25 24 18 22 24 24 25 22 23 26 26 20 25 22 24 25 25 24 25 26
8 6 4 2 2 5 8 11 13 14 15 16 17 17 18 18 19 20 20 20 20 22 25 27 29 28 27 22 26 28 30 23 25 27 23 23 25 24 26 25 25 23 28
6 5 3 2 4 6 9 12 14 15 15 16 16 15 15 16 17 19 19 19 19 21 23 25 28 31 32 30 31 30 35 33 29 24 24 24 25 25 28 26 26 24 25
6 4 3 3 5 7 9 12 13 14 14 13 13 14 15 16 17 19 19 20 20 21 20 21 23 25 29 35 31 33 36 36 30 28 27 26 25 24 25 29 28 27 26
6 5 4 4 5 7 9 11 12 13 14 14 15 14 16 16 17 17 17 19 20 19 20 20 19 20 21 23 35 35 30 39 36 30 30 28 27 27 26 26 30 30 29
5 4 4 4 6 7 9 11 12 13 14 14 14 15 16 17 18 18 18 18 19 18 19 21 24 23 24 24 26 36 39 32 39 40 37 31 29 28 29 28 28 33 33
4 3 4 5 7 8 10 12 13 14 13 13 14 15 15 17 18 19 17 19 19 19 22 23 26 26 22 18 21 25 31 37 40 39 40 40 33 30 30 31 32 31 36
4 4 4 5 7 8 10 12 13 14 12 13 15 16 16 17 18 18 19 19 20 21 20 20 21 23 23 16 16 20 25 30 33 33 37 41 43 35 32 33 35 33 34
5 4 4 4 7 9 12 12 13 11 10 11 16 15 19 19 19 20 20 20 20 21 22 22 21 20 22 24 18 14 12 24 27 28 29 33 44 43 36 32 35 35 32
5 3 3 4 7 10 12 13 14 13 13 16 15 17 19 20 21 20 21 21 22 22 21 21 21 21 20 26 21 19 21 28 21 18 19 23 31 39 45 41 36 36 34
5 3 3 5 7 10 12 13 12 13 13 12 14 17 18 19 21 22 21 21 22 22 22 21 22 23 22 24 24 26 26 25 33 34 31 32 32 28 32 44 42 43 41
4 3 3 5 7 10 12 13 14 15 15 14 14 16 17 20 20 21 22 23 23 24 24 24 24 24 24 25 26 26 28 24 21 27 36 40 34 35 33 33 45 44 46
Wind_Direction
53 77 121 128 144 153 173 164 157 149 144 137 140 142 141 140 130 78 58 49 40 32 34 256 228 223 232 245 249 239 258 287 298 298 306 292 279 285 272 254 241 242 236
82 94 136 146 147 154 160 164 160 158 153 149 152 147 154 161 164 131 62 50 36 28 352 276 258 242 247 261 266 272 277 285 290 292 288 273 249 258 251 219 164 217 195
83 79 124 153 152 148 147 145 153 161 165 166 160 159 171 188 203 235 299 44 14 5 345 286 262 257 258 263 270 277 277 284 286 285 273 198 261 259 228 212 201 209 200
86 118 143 154 164 158 161 155 162 169 173 172 181 187 200 217 231 237 259 272 304 325 327 309 281 270 268 270 270 275 282 284 285 277 298 226 268 268 222 213 211 215 209
124 106 96 104 209 187 175 180 194 198 194 195 201 217 228 233 235 240 243 255 269 289 292 292 288 278 279 280 278 278 282 284 280 270 225 252 226 254 204 192 201 199 208
115 88 78 36 257 252 226 205 211 233 247 246 250 254 252 248 257 252 248 253 258 265 269 275 277 275 277 277 278 279 281 278 272 239 226 258 202 241 204 191 176 168 158
103 98 79 59 44 354 296 282 270 270 274 278 278 274 272 271 268 260 261 266 264 262 268 269 270 272 274 274 277 279 280 278 269 244 246 240 227 219 194 178 162 157 158
114 97 76 58 46 39 18 351 333 316 303 295 286 279 277 271 266 259 252 249 264 271 270 268 262 265 268 267 272 275 278 274 266 238 239 239 231 215 196 189 186 177 180
132 98 86 71 68 48 22 0 344 330 321 311 300 291 280 273 267 260 257 253 249 256 267 269 267 265 265 264 265 269 271 270 258 249 241 232 241 223 208 203 198 193 198
138 118 90 69 53 31 5 344 341 335 317 305 303 300 300 295 282 270 264 263 255 255 255 261 265 267 268 264 262 262 265 263 258 250 249 241 238 233 224 216 207 197 206
129 116 98 78 22 344 334 326 318 309 304 298 294 291 288 289 284 273 268 264 261 260 260 257 256 264 270 269 264 259 258 257 253 250 253 249 248 240 229 226 223 218 205
140 125 108 63 7 3 3 354 341 328 320 313 303 292 283 281 280 281 275 269 270 265 263 262 258 254 260 264 273 272 252 248 252 248 250 252 252 240 232 238 233 228 216
156 147 133 30 34 26 17 9 2 348 333 323 316 311 306 297 288 280 277 270 272 284 278 275 268 262 252 250 249 254 253 247 250 253 254 257 251 240 235 243 242 233 220
169 175 178 150 32 18 9 2 356 350 342 331 319 315 313 310 304 296 286 283 278 277 261 248 264 260 254 253 249 246 254 262 254 249 252 261 251 241 234 245 246 235 230
180 185 183 192 5 360 357 352 349 345 343 336 331 324 318 314 311 310 304 295 283 276 273 264 254 248 259 258 256 252 248 255 265 261 252 258 251 244 239 242 248 233 225
187 186 191 222 319 349 347 343 342 343 345 341 330 323 319 317 314 313 310 302 293 281 272 268 263 260 252 253 258 261 257 252 258 261 254 252 259 246 240 240 242 233 229
193 191 208 257 325 342 338 339 344 344 346 339 327 323 320 319 318 319 319 317 307 295 285 276 269 264 258 257 258 257 265 261 256 255 251 247 254 255 242 239 239 230 230
200 214 245 289 329 339 339 343 342 338 340 337 331 330 327 326 326 325 321 317 312 310 302 290 281 273 268 257 259 262 263 265 259 252 248 247 246 245 254 240 236 228 224
209 224 262 301 317 328 339 339 335 334 340 343 342 341 339 337 333 329 324 318 315 312 305 298 288 280 280 276 258 256 265 265 260 250 248 245 243 240 239 249 234 227 223
216 234 262 289 308 320 331 331 334 339 343 343 338 335 337 338 335 331 328 323 317 311 307 305 300 289 280 279 276 260 252 264 268 258 252 244 244 241 238 237 233 227 224
231 255 276 290 312 329 332 330 338 338 340 339 335 335 335 336 336 334 333 331 323 314 312 310 309 304 292 283 284 277 265 259 260 267 256 252 241 240 238 230 230 221 223
231 250 275 309 328 335 336 336 338 338 334 335 338 339 339 338 335 331 329 328 327 321 315 312 307 306 300 299 287 285 274 262 261 260 263 252 252 240 236 233 231 223 223
227 246 273 319 336 339 342 343 342 335 328 325 336 339 337 338 336 330 328 328 327 326 321 313 307 303 309 301 283 264 286 261 267 263 264 253 249 247 238 237 232 225 217
228 257 302 323 337 340 343 345 342 337 333 330 336 337 340 338 336 331 327 324 324 325 326 319 313 304 304 298 291 276 260 264 279 287 269 252 250 249 243 235 233 228 221
223 252 295 332 338 341 339 340 343 334 332 330 329 333 335 337 336 333 328 324 320 321 322 320 314 306 295 285 287 286 278 267 257 264 275 280 265 258 255 243 237 238 232
225 263 312 340 337 338 340 339 339 338 337 331 330 335 331 333 331 330 329 326 324 321 322 321 314 306 294 287 288 281 273 269 266 258 261 268 272 261 256 247 240 232 238
Height
1541 1539 1538 1538 1539 1538 1538 1538 1537 1537 1537 1536 1536 1536 1535 1536 1535 1534 1534 1533 1532 1533 1533 1533 1532 1532 1531 1531 1531 1531 1531 1530 1529 1528 1526 1525 1523 1522 1522 1520 1520 1522 1520
1541 1539 1538 1538 1538 1538 1537 1538 1537 1537 1537 1535 1536 1535 1535 1534 1535 1535 1534 1533 1532 1532 1533 1533 1532 1532 1532 1532 1531 1531 1530 1530 1528 1527 1526 1524 1523 1523 1522 1521 1521 1521 1521
1541 1541 1539 1538 1537 1538 1537 1537 1537 1537 1536 1536 1535 1535 1535 1534 1534 1534 1534 1533 1533 1532 1532 1532 1532 1532 1531 1531 1531 1531 1530 1529 1528 1527 1525 1525 1524 1522 1522 1522 1522 1522 1522
1540 1538 1538 1538 1538 1537 1538 1536 1537 1536 1536 1535 1535 1534 1534 1534 1534 1533 1533 1533 1532 1532 1532 1531 1531 1531 1530 1530 1530 1529 1529 1528 1527 1526 1525 1528 1525 1522 1522 1522 1522 1522 1523
1539 1539 1539 1539 1539 1538 1537 1536 1537 1537 1536 1535 1534 1534 1534 1533 1533 1533 1532 1532 1531 1531 1531 1529 1529 1530 1529 1528 1529 1528 1528 1527 1527 1525 1527 1527 1526 1523 1522 1522 1523 1523 1524
1541 1540 1539 1539 1539 1539 1538 1537 1537 1537 1536 1536 1534 1534 1533 1532 1532 1532 1531 1530 1530 1529 1530 1528 1527 1528 1527 1527 1527 1527 1526 1526 1525 1526 1527 1525 1525 1523 1523 1523 1523 1524 1524
1541 1541 1540 1539 1538 1538 1538 1538 1537 1536 1535 1535 1534 1533 1532 1531 1530 1529 1529 1529 1528 1528 1528 1526 1526 1526 1525 1525 1525 1525 1525 1525 1524 1525 1526 1525 1525 1522 1523 1523 1524 1525 1525
1542 1541 1541 1540 1539 1539 1538 1538 1537 1536 1535 1534 1533 1532 1531 1530 1528 1528 1527 1526 1527 1526 1526 1525 1524 1524 1523 1524 1523 1523 1523 1523 1522 1523 1523 1525 1522 1522 1522 1523 1524 1524 1526
1542 1542 1542 1541 1541 1540 1539 1538 1537 1535 1534 1532 1532 1531 1529 1528 1527 1526 1525 1524 1524 1524 1523 1523 1523 1521 1521 1521 1521 1521 1521 1521 1520 1521 1521 1522 1520 1521 1522 1522 1522 1523 1526
1541 1541 1542 1542 1541 1540 1539 1538 1536 1535 1533 1532 1530 1529 1528 1527 1526 1525 1524 1522 1522 1521 1520 1520 1520 1519 1518 1518 1518 1518 1518 1518 1518 1519 1519 1520 1518 1519 1520 1521 1521 1521 1523
1541 1541 1541 1542 1542 1540 1538 1537 1535 1534 1532 1530 1528 1527 1525 1524 1523 1522 1521 1520 1519 1518 1517 1517 1516 1516 1516 1515 1515 1515 1515 1515 1517 1516 1517 1517 1516 1517 1517 1519 1520 1520 1519
1540 1541 1541 1541 1541 1539 1538 1536 1534 1532 1530 1528 1526 1524 1522 1521 1520 1519 1518 1517 1516 1515 1514 1513 1513 1512 1512 1513 1514 1511 1511 1513 1514 1513 1513 1511 1512 1513 1513 1515 1517 1517 1517
1538 1539 1539 1539 1539 1538 1536 1534 1532 1530 1528 1526 1523 1522 1520 1519 1517 1516 1514 1513 1512 1513 1512 1512 1510 1509 1509 1510 1511 1511 1509 1509 1510 1510 1509 1506 1508 1508 1509 1510 1512 1514 1515
1536 1537 1537 1537 1536 1535 1534 1532 1529 1527 1525 1523 1521 1519 1517 1516 1515 1513 1511 1509 1508 1507 1507 1506 1509 1508 1507 1506 1505 1504 1504 1503 1504 1504 1505 1502 1503 1504 1505 1506 1508 1510 1512
1535 1535 1536 1536 1535 1534 1532 1530 1528 1526 1522 1520 1517 1516 1515 1513 1511 1509 1507 1506 1504 1503 1502 1501 1500 1501 1502 1502 1501 1498 1498 1497 1497 1499 1500 1498 1498 1499 1500 1502 1503 1505 1507
1533 1533 1533 1534 1533 1532 1530 1529 1526 1523 1520 1518 1515 1513 1511 1509 1507 1505 1503 1502 1499 1498 1496 1495 1495 1495 1494 1495 1496 1494 1492 1494 1491 1492 1495 1496 1492 1493 1494 1496 1498 1499 1502
1532 1531 1531 1531 1531 1530 1529 1527 1524 1521 1518 1516 1514 1512 1509 1507 1504 1502 1500 1497 1494 1492 1491 1489 1489 1488 1487 1488 1488 1488 1486 1487 1487 1488 1489 1490 1490 1487 1488 1490 1492 1494 1496
1529 1529 1529 1529 1528 1527 1525 1523 1521 1519 1516 1514 1512 1509 1506 1503 1500 1498 1496 1493 1490 1488 1485 1484 1482 1481 1480 1480 1480 1480 1479 1479 1480 1482 1483 1483 1484 1485 1483 1483 1486 1489 1491
1527 1527 1528 1528 1527 1526 1524 1522 1520 1517 1514 1511 1508 1505 1502 1499 1497 1494 1491 1488 1485 1483 1480 1478 1477 1475 1475 1474 1472 1472 1472 1470 1472 1474 1475 1476 1477 1479 1481 1477 1479 1483 1485
1525 1525 1526 1526 1525 1524 1522 1520 1518 1515 1512 1509 1507 1504 1500 1496 1493 1491 1488 1485 1481 1479 1477 1474 1471 1469 1467 1466 1465 1463 1464 1463 1462 1463 1465 1467 1470 1471 1473 1475 1473 1475 1479
1522 1522 1522 1522 1522 1521 1519 1518 1515 1513 1510 1508 1505 1502 1498 1494 1491 1487 1484 1481 1478 1475 1472 1470 1467 1464 1462 1461 1459 1457 1454 1455 1453 1453 1455 1456 1460 1463 1465 1466 1467 1467 1470
1519 1519 1519 1519 1518 1518 1516 1515 1513 1509 1507 1505 1502 1498 1495 1491 1487 1485 1481 1478 1474 1471 1468 1465 1464 1461 1457 1457 1458 1454 1448 1448 1445 1446 1445 1446 1447 1454 1456 1457 1459 1461 1464
1516 1516 1516 1516 1515 1514 1514 1512 1510 1509 1507 1504 1499 1495 1491 1488 1483 1480 1478 1474 1471 1468 1464 1461 1460 1459 1452 1452 1452 1454 1448 1439 1441 1438 1434 1435 1438 1442 1448 1450 1452 1454 1457
1514 1514 1514 1513 1512 1511 1511 1510 1509 1507 1504 1500 1496 1492 1488 1484 1481 1477 1475 1471 1467 1463 1459 1457 1455 1454 1449 1449 1447 1446 1447 1445 1440 1434 1431 1430 1431 1432 1435 1441 1444 1446 1449
1511 1512 1512 1511 1510 1508 1508 1507 1506 1504 1501 1498 1495 1489 1485 1481 1478 1474 1471 1468 1463 1458 1455 1453 1450 1448 1447 1445 1442 1439 1437 1436 1436 1435 1428 1425 1429 1427 1428 1432 1435 1437 1441
1509 1509 1509 1509 1507 1506 1505 1504 1502 1499 1496 1495 1491 1487 1482 1477 1474 1471 1468 1463 1459 1454 1450 1447 1445 1443 1441 1438 1435 1433 1431 1429 1428 1429 1426 1422 1420 1421 1422 1423 1425 1428 1430